[TLELIST] Archives

 

[TLELIST] Current TLEs

September 2nd 2024 PDT

HST 1 20580U 90037B 24245.95971568 .00013277 00000-0 60617-3 0 9994 2 20580 28.4680 190.3036 0002464 160.3206 199.7482 15.19073146688718 ISS (ZARYA) 1 25544U 98067A 24246.39742947 .00022683 00000-0 41391-3 0 9995 2 25544 51.6411 292.8343 0011141 310.7413 141.3655 15.49270748470528 CXO 1 25867U 99040B 24247.19817133 .00000902 00000-0 00000-0 0 9993 2 25867 42.8555 147.2449 8811856 300.8412 0.6880 0.37809906 14857 ...Continue Reading

[TLELIST] Current TLEs

September 1st 2024 PDT

HST 1 20580U 90037B 24244.58003658 .00012771 00000-0 58337-3 0 9992 2 20580 28.4674 199.5666 0002497 146.0491 214.0262 15.19036139688509 ISS (ZARYA) 1 25544U 98067A 24245.36737579 .00022741 00000-0 41563-3 0 9992 2 25544 51.6410 297.9317 0011185 307.1458 156.2585 15.49223257470363 CXO 1 25867U 99040B 24247.19817133 .00000902 00000-0 00000-0 0 9993 2 25867 42.8555 147.2449 8811856 300.8412 0.6880 0.37809906 14857 ...Continue Reading

[TLELIST] Current TLEs

August 31st 2024 PDT

HST 1 20580U 90037B 24243.59453106 .00011139 00000-0 50814-3 0 9998 2 20580 28.4670 206.1830 0002491 135.8834 224.1958 15.19010986688353 ISS (ZARYA) 1 25544U 98067A 24243.69891984 .00053939 00000-0 97276-3 0 9992 2 25544 51.6407 306.1908 0011145 301.8729 210.3060 15.49164437470102 CXO 1 25867U 99040B 24244.55236217 .00000872 00000-0 00000-0 0 9994 2 25867 42.7947 147.4522 8816024 300.7014 0.5263 0.37806177 14844 ...Continue Reading

[TLELIST] Current TLEs

August 30th 2024 PDT

HST 1 20580U 90037B 24242.60901044 .00011922 00000-0 54476-3 0 9996 2 20580 28.4668 212.7994 0002488 125.5399 234.5426 15.18990157688207 ISS (ZARYA) 1 25544U 98067A 24243.43343466 .00023737 00000-0 43471-3 0 9992 2 25544 51.6412 307.5019 0011312 297.9666 172.6496 15.49136267470065 CXO 1 25867U 99040B 24244.55236217 .00000872 00000-0 00000-0 0 9994 2 25867 42.7947 147.4522 8816024 300.7014 0.5263 0.37806177 14844 ...Continue Reading

[TLELIST] Current TLEs

August 30th 2024 PDT

HST 1 20580U 90037B 24242.60901044 .00011922 00000-0 54476-3 0 9996 2 20580 28.4668 212.7994 0002488 125.5399 234.5426 15.18990157688207 ISS (ZARYA) 1 25544U 98067A 24243.43343466 .00023737 00000-0 43471-3 0 9992 2 25544 51.6412 307.5019 0011312 297.9666 172.6496 15.49136267470065 CXO 1 25867U 99040B 24244.55236217 .00000872 00000-0 00000-0 0 9994 2 25867 42.7947 147.4522 8816024 300.7014 0.5263 0.37806177 14844 ...Continue Reading

[TLELIST] Current TLEs

August 29th 2024 PDT

HST 1 20580U 90037B 24241.62347487 .00012380 00000-0 56635-3 0 9990 2 20580 28.4670 219.4154 0002488 116.2244 243.8604 15.18969491688059 ISS (ZARYA) 1 25544U 98067A 24242.39533697 .00023709 00000-0 43496-3 0 9999 2 25544 51.6414 312.6385 0011375 294.0165 143.5114 15.49085741469906 CXO 1 25867U 99040B 24244.55236217 .00000872 00000-0 00000-0 0 9994 2 25867 42.7947 147.4522 8816024 300.7014 0.5263 0.37806177 14844 ...Continue Reading

[TLELIST] Current TLEs

August 28th 2024 PDT

HST 1 20580U 90037B 24240.63792527 .00009163 00000-0 41724-3 0 9997 2 20580 28.4672 226.0311 0002493 106.1589 253.9278 15.18946183687901 ISS (ZARYA) 1 25544U 98067A 24241.29906436 .00025138 00000-0 44364-3 0 9995 2 25544 51.6405 318.0594 0006385 282.9631 157.9921 15.50201229469736 CXO 1 25867U 99040B 24241.90789245 .00000809 00000-0 00000-0 0 9994 2 25867 42.7383 147.6553 8819176 300.5585 0.5700 0.37805591 14830 ...Continue Reading

[TLELIST] Current TLEs

August 27th 2024 PDT

HST 1 20580U 90037B 24239.65236288 .00008633 00000-0 39280-3 0 9999 2 20580 28.4675 232.6467 0002498 96.5904 263.4973 15.18929464687751 ISS (ZARYA) 1 25544U 98067A 24240.33707446 .00026777 00000-0 47262-3 0 9999 2 25544 51.6405 322.8286 0006393 278.3810 190.5363 15.50159888469583 CXO 1 25867U 99040B 24241.90789245 .00000809 00000-0 00000-0 0 9994 2 25867 42.7383 147.6553 8819176 300.5585 0.5700 0.37805591 14830 ...Continue Reading

[TLELIST] Current TLEs

August 27th 2024 PDT

HST 1 20580U 90037B 24239.65236288 .00008633 00000-0 39280-3 0 9999 2 20580 28.4675 232.6467 0002498 96.5904 263.4973 15.18929464687751 ISS (ZARYA) 1 25544U 98067A 24240.33707446 .00026777 00000-0 47262-3 0 9999 2 25544 51.6405 322.8286 0006393 278.3810 190.5363 15.50159888469583 CXO 1 25867U 99040B 24241.90789245 .00000809 00000-0 00000-0 0 9994 2 25867 42.7383 147.6553 8819176 300.5585 0.5700 0.37805591 14830 ...Continue Reading

[TLELIST] Current TLEs

August 26th 2024 PDT

HST 1 20580U 90037B 24238.66678998 .00009040 00000-0 41191-3 0 9994 2 20580 28.4678 239.2619 0002499 86.7571 273.3307 15.18913219687604 ISS (ZARYA) 1 25544U 98067A 24239.42873469 .00020323 00000-0 36164-3 0 9996 2 25544 51.6391 327.3293 0006373 276.4665 160.1275 15.50103175469448 CXO 1 25867U 99040B 24241.90701197 .00000809 00000-0 00000-0 0 9994 2 25867 42.7383 147.6553 8819165 300.5586 0.4492 0.37805641 14832 ...Continue Reading
  • This mailing list is a public mailing list - anyone may join or leave, at any time.
  • This mailing list is announce-only.

International Space Station (ISS) / Hubble Space Telescope (HST) / Chandra X-Ray Observatory Orbital Data via EMAIL

Privacy Policy:

Private list